This is the latest recevied weather packets stored in our database for station/object N5TDX. If no packets are shown the sender has not sent any weather packets the latest 10 day(s).
| Time | Temp. | Humidity | Pressure | Rain* | Wind** | Luminosity | Snow |
|---|---|---|---|---|---|---|---|
| 1788278225 | 34.44° C | 44% | 1014.3 hPa | 0 mm | - | - | - |
| 1788277920 | 34.44° C | 45% | 1014.6 hPa | 0 mm | - | - | - |
| 1788277615 | 34.44° C | 45% | 1014.4 hPa | 0 mm | - | - | - |
| 1788277310 | 34.44° C | 46% | 1014.5 hPa | 0 mm | - | - | - |
| 1788277006 | 35° C | 45% | 1014.4 hPa | 0 mm | - | - | - |
| 1788276705 | 34.44° C | 46% | 1014.4 hPa | 0 mm | - | - | - |
| 1788276400 | 33.89° C | 46% | 1014.3 hPa | 0 mm | - | - | - |
| 1788276098 | 33.33° C | 48% | 1014.4 hPa | 0 mm | - | - | - |
| 1788275795 | 33.33° C | 48% | 1014.4 hPa | 0 mm | - | - | - |
| 1788275494 | 33.33° C | 48% | 1014.6 hPa | 0 mm | - | - | - |
| 1788275193 | 33.33° C | 48% | 1014.5 hPa | 0 mm | - | - | - |
| 1788274892 | 32.78° C | 49% | 1014.5 hPa | 0 mm | - | - | - |
| 1788274590 | 32.78° C | 50% | 1014.6 hPa | 0 mm | - | - | - |
| 1788274289 | 32.22° C | 51% | 1014.5 hPa | 0 mm | - | - | - |
| 1788273985 | 32.22° C | 52% | 1014.6 hPa | 0 mm | - | - | - |
| 1788273681 | 31.67° C | 53% | 1014.6 hPa | 0 mm | - | - | - |
| 1788273376 | 31.11° C | 54% | 1014.6 hPa | 0 mm | - | - | - |
| 1788273072 | 31.11° C | 54% | 1014.4 hPa | 0 mm | - | - | - |
| 1788272768 | 31.11° C | 54% | 1014.7 hPa | 0 mm | - | - | - |
| 1788272467 | 31.11° C | 55% | 1014.8 hPa | 0 mm | - | - | - |
| 1788272162 | 30.56° C | 56% | 1014.9 hPa | 0 mm | - | - | - |
| 1788271856 | 30.56° C | 56% | 1014.8 hPa | 0 mm | - | - | - |
| 1788271556 | 30° C | 58% | 1014.8 hPa | 0 mm | - | - | - |
| 1788271255 | 29.44° C | 58% | 1014.7 hPa | 0 mm | - | - | - |
| 1788270954 | 29.44° C | 59% | 1014.7 hPa | 0 mm | - | - | - |
* Rain latest hour (hover to see other rain measurements)
** Current wind speed in m/s (hover to see current wind gust speed)